| time (UTC) | temp F | wind direction | speed MPH | gust MPH | rain 1hr in | rain 24hr in | rain mn in | humidity % | barometer mb |
| 20260903121804 | 63 | 201 | 5.0 | 9.0 | 0.00 | 0.20 | 0.00 | 78 | 1006.6 |
| 20260903121607 | 63 | 216 | 6.0 | 10.0 | 0.00 | 0.00 | 0.00 | 78 | 1006.6 |
| 20260903121303 | 63 | 202 | 8.0 | 10.0 | 0.00 | 0.20 | 0.00 | 78 | 1006.7 |
| 20260903120804 | 63 | 210 | 7.0 | 10.0 | 0.00 | 0.20 | 0.00 | 79 | 1006.8 |
| 20260903120304 | 63 | 179 | 7.0 | 12.0 | 0.00 | 0.20 | 0.00 | 79 | 1006.9 |
| 20260903120105 | 62 | 162 | 8.0 | 12.0 | 0.00 | 0.00 | 0.00 | 79 | 1006.8 |
| 20260903114604 | 61 | 181 | 3.0 | 12.0 | 0.00 | 0.03 | 0.00 | 79 | 1007.1 |
| 20260903113804 | 62 | 188 | 7.0 | 12.0 | 0.00 | 0.20 | 0.00 | 80 | 1007.3 |
| 20260903113314 | 62 | 203 | 9.0 | 12.0 | 0.00 | 0.21 | 0.00 | 80 | 1007.3 |
| 20260903113107 | 61 | 221 | 6.0 | 11.0 | 0.00 | 0.03 | 0.00 | 79 | 1007.2 |
| 20260903111604 | 61 | 192 | 6.0 | 11.0 | 0.00 | 0.03 | 0.00 | 79 | 1007.3 |
| 20260903111304 | 62 | 218 | 7.0 | 9.0 | 0.00 | 0.22 | 0.00 | 80 | 1007.5 |
| 20260903110803 | 61 | 200 | 7.0 | 12.0 | 0.00 | 0.22 | 0.00 | 80 | 1007.5 |
| 20260903110304 | 62 | 206 | 8.0 | 12.0 | 0.00 | 0.22 | 0.00 | 80 | 1007.6 |
| 20260903110109 | 61 | 217 | 6.0 | 11.0 | 0.00 | 0.03 | 0.00 | 79 | 1007.5 |
| 20260903104806 | 61 | 192 | 6.0 | 10.0 | 0.00 | 0.22 | 0.00 | 79 | 1007.6 |
| 20260903104603 | 61 | 198 | 5.0 | 11.0 | 0.00 | 0.03 | 0.00 | 79 | 1007.6 |
| 20260903104304 | 61 | 199 | 5.0 | 12.0 | 0.00 | 0.22 | 0.00 | 79 | 1007.7 |
| 20260903103804 | 61 | 191 | 8.0 | 12.0 | 0.00 | 0.22 | 0.00 | 80 | 1007.7 |
| 20260903103304 | 61 | 198 | 9.0 | 12.0 | 0.00 | 0.22 | 0.00 | 80 | 1007.8 |
| 20260903103107 | 60 | 183 | 8.0 | 11.0 | 0.00 | 0.03 | 0.00 | 79 | 1007.7 |
| 20260903101610 | 60 | 208 | 8.0 | 11.0 | 0.00 | 0.03 | 0.00 | 79 | 1007.7 |
| 20260903101304 | 60 | 198 | 7.0 | 12.0 | 0.00 | 0.22 | 0.00 | 80 | 1008.0 |
| 20260903100804 | 60 | 188 | 7.0 | 12.0 | 0.00 | 0.22 | 0.00 | 80 | 1008.1 |
| 20260903100106 | 60 | 212 | 8.0 | 12.0 | 0.00 | 0.03 | 0.00 | 80 | 1008.2 |
| 20260903094804 | 60 | 217 | 7.0 | 10.0 | 0.00 | 0.22 | 0.00 | 81 | 1008.5 |
| 20260903094611 | 60 | 223 | 4.0 | 9.0 | 0.00 | 0.03 | 0.00 | 81 | 1008.5 |
| 20260903093805 | 60 | 235 | 6.0 | 10.0 | 0.00 | 0.22 | 0.00 | 81 | 1008.7 |
| 20260903093109 | 59 | 234 | 7.0 | 10.0 | 0.00 | 0.03 | 0.00 | 80 | 1008.7 |
| 20260903091804 | 60 | 227 | 5.0 | 8.0 | 0.00 | 0.22 | 0.00 | 81 | 1008.8 |
| 20260903091608 | 59 | 249 | 5.0 | 10.0 | 0.00 | 0.03 | 0.00 | 80 | 1008.9 |
| 20260903091304 | 59 | 234 | 6.0 | 10.0 | 0.00 | 0.22 | 0.00 | 80 | 1008.9 |
| 20260903090805 | 59 | 261 | 7.0 | 10.0 | 0.00 | 0.22 | 0.00 | 80 | 1009.0 |
| 20260903090304 | 59 | 243 | 6.0 | 10.0 | 0.00 | 0.22 | 0.00 | 80 | 1009.0 |
| 20260903090108 | 59 | 243 | 6.0 | 10.0 | 0.00 | 0.03 | 0.00 | 80 | 1009.0 |
| 20260903084803 | 59 | 249 | 7.0 | 10.0 | 0.00 | 0.22 | 0.00 | 79 | 1009.2 |
| 20260903084604 | 59 | 241 | 6.0 | 12.0 | 0.00 | 0.03 | 0.00 | 79 | 1009.0 |
| 20260903084304 | 59 | 221 | 7.0 | 12.0 | 0.00 | 0.22 | 0.00 | 79 | 1009.2 |
| 20260903083804 | 59 | 235 | 7.0 | 12.0 | 0.00 | 0.22 | 0.00 | 78 | 1009.3 |
| 20260903083304 | 59 | 255 | 10.0 | 14.0 | 0.00 | 0.22 | 0.00 | 78 | 1009.4 |
| 20260903083109 | 58 | 248 | 9.0 | 13.0 | 0.00 | 0.03 | 0.00 | 78 | 1009.2 |
| 20260903081803 | 59 | 252 | 9.0 | 12.0 | 0.00 | 0.22 | 0.00 | 79 | 1009.5 |
| 20260903081604 | 58 | 264 | 4.0 | 10.0 | 0.00 | 0.03 | 0.00 | 79 | 1009.4 |
| 20260903081303 | 59 | 251 | 6.0 | 10.0 | 0.00 | 0.22 | 0.00 | 80 | 1009.4 |
| 20260903080804 | 58 | 258 | 8.0 | 10.0 | 0.00 | 0.22 | 0.00 | 79 | 1009.4 |
| 20260903080304 | 58 | 245 | 7.0 | 14.0 | 0.00 | 0.22 | 0.00 | 80 | 1009.6 |
| 20260903080113 | 58 | 248 | 9.0 | 13.0 | 0.00 | 0.03 | 0.00 | 79 | 1009.6 |
| 20260903074804 | 58 | 266 | 11.0 | 14.0 | 0.00 | 0.22 | 0.00 | 80 | 1009.7 |
| 20260903074607 | 58 | 245 | 10.0 | 16.0 | 0.00 | 0.03 | 0.00 | 79 | 1009.7 |
| 20260903074304 | 58 | 268 | 10.0 | 14.0 | 0.00 | 0.22 | 0.00 | 79 | 1009.7 |
| 20260903073804 | 58 | 263 | 12.0 | 16.0 | 0.00 | 0.22 | 0.00 | 79 | 1009.9 |
| 20260903073304 | 58 | 266 | 12.0 | 16.0 | 0.00 | 0.22 | 0.00 | 79 | 1009.9 |
| 20260903073116 | 58 | 259 | 11.0 | 16.0 | 0.00 | 0.03 | 0.00 | 79 | 1009.8 |
| 20260903071804 | 58 | 272 | 10.0 | 14.0 | 0.00 | 0.22 | 0.00 | 80 | 1009.9 |
| 20260903071608 | 57 | 282 | 9.0 | 14.0 | 0.00 | 0.03 | 0.00 | 79 | 1009.8 |
| 20260903071304 | 58 | 268 | 10.0 | 12.0 | 0.00 | 0.22 | 0.00 | 79 | 1009.8 |
| 20260903070804 | 58 | 265 | 12.0 | 14.0 | 0.00 | 0.22 | 0.00 | 79 | 1009.8 |
| 20260903070304 | 58 | 267 | 10.0 | 14.0 | 0.00 | 0.22 | 0.00 | 78 | 1009.8 |
| 20260903070110 | 58 | 268 | 10.0 | 14.0 | 0.00 | 0.03 | 0.00 | 77 | 1009.8 |
| 20260903064603 | 59 | 256 | 11.0 | 15.0 | 0.00 | 0.03 | 0.00 | 76 | 1009.9 |
| 20260903063804 | 59 | 262 | 10.0 | 15.0 | 0.00 | 0.22 | 0.00 | 76 | 1009.8 |
| 20260903063304 | 59 | 267 | 11.0 | 14.0 | 0.00 | 0.22 | 0.00 | 76 | 1009.9 |
| 20260903063127 | 59 | 274 | 11.0 | 14.0 | 0.00 | 0.03 | 0.00 | 76 | 1009.8 |
| 20260903061804 | 59 | 274 | 12.0 | 16.0 | 0.00 | 0.22 | 0.00 | 76 | 1009.9 |
| 20260903061605 | 59 | 268 | 10.0 | 16.0 | 0.00 | 0.03 | 0.00 | 76 | 1009.8 |
| 20260903061304 | 59 | 281 | 8.0 | 13.0 | 0.00 | 0.22 | 0.00 | 76 | 1010.0 |
| 20260903060804 | 59 | 265 | 12.0 | 15.0 | 0.00 | 0.22 | 0.00 | 76 | 1010.0 |
| 20260903060303 | 59 | 262 | 12.0 | 17.0 | 0.00 | 0.22 | 0.00 | 76 | 1009.9 |
| 20260903060108 | 58 | 273 | 12.0 | 17.0 | 0.00 | 0.03 | 0.00 | 76 | 1009.8 |
| 20260903054604 | 58 | 264 | 12.0 | 16.0 | 0.00 | 0.03 | 0.00 | 76 | 1009.9 |
| 20260903054304 | 59 | 267 | 13.0 | 16.0 | 0.00 | 0.22 | 0.00 | 76 | 1010.0 |
| 20260903053804 | 59 | 272 | 10.0 | 14.0 | 0.00 | 0.22 | 0.00 | 75 | 1010.1 |
| 20260903053105 | 58 | 268 | 12.0 | 17.0 | 0.00 | 0.03 | 0.00 | 73 | 1010.1 |
| 20260903051804 | 59 | 271 | 12.0 | 16.0 | 0.00 | 0.22 | 0.00 | 74 | 1010.2 |
| 20260903051610 | 58 | 288 | 13.0 | 16.0 | 0.00 | 0.03 | 0.00 | 73 | 1010.2 |
| 20260903051304 | 58 | 283 | 14.0 | 16.0 | 0.00 | 0.22 | 0.00 | 73 | 1010.3 |
| 20260903050803 | 58 | 295 | 10.0 | 15.0 | 0.00 | 0.22 | 0.00 | 74 | 1010.3 |
| 20260903050304 | 58 | 290 | 13.0 | 20.0 | 0.00 | 0.22 | 0.00 | 74 | 1010.4 |
| 20260903050115 | 58 | 283 | 12.0 | 19.0 | 0.00 | 0.03 | 0.00 | 74 | 1010.2 |
| 20260903044606 | 58 | 300 | 14.0 | 19.0 | 0.00 | 0.03 | 0.00 | 73 | 1010.3 |
| 20260903044304 | 58 | 275 | 13.0 | 20.0 | 0.00 | 0.22 | 0.00 | 74 | 1010.3 |
| 20260903043803 | 58 | 268 | 12.0 | 16.0 | 0.00 | 0.22 | 0.00 | 73 | 1010.3 |
| 20260903043304 | 58 | 291 | 13.0 | 18.0 | 0.00 | 0.22 | 0.00 | 73 | 1010.5 |
| 20260903043111 | 57 | 287 | 14.0 | 18.0 | 0.00 | 0.03 | 0.00 | 73 | 1010.3 |
| 20260903041804 | 58 | 280 | 11.0 | 16.0 | 0.00 | 0.22 | 0.00 | 73 | 1010.6 |
| 20260903041611 | 57 | 292 | 11.0 | 21.0 | 0.00 | 0.03 | 0.00 | 72 | 1010.6 |
| 20260903041304 | 58 | 296 | 14.0 | 20.0 | 0.00 | 0.22 | 0.00 | 72 | 1010.5 |
| 20260903040804 | 57 | 290 | 12.0 | 21.0 | 0.00 | 0.22 | 0.00 | 72 | 1010.6 |
| 20260903040304 | 58 | 290 | 15.0 | 20.0 | 0.00 | 0.22 | 0.00 | 73 | 1010.7 |
| 20260903040117 | 57 | 291 | 14.0 | 18.0 | 0.00 | 0.03 | 0.00 | 72 | 1010.7 |
| 20260903034602 | 57 | 292 | 13.0 | 20.0 | 0.00 | 0.03 | 0.00 | 71 | 1010.7 |
| 20260903034304 | 57 | 280 | 16.0 | 20.0 | 0.00 | 0.22 | 0.00 | 72 | 1010.7 |
| 20260903033804 | 57 | 297 | 14.0 | 18.0 | 0.00 | 0.22 | 0.00 | 71 | 1010.7 |
| 20260903033107 | 57 | 310 | 13.0 | 23.0 | 0.00 | 0.03 | 0.00 | 72 | 1010.9 |
| 20260903031804 | 58 | 287 | 16.0 | 20.0 | 0.00 | 0.22 | 0.00 | 71 | 1010.9 |
| 20260903031605 | 57 | 287 | 15.0 | 21.0 | 0.00 | 0.03 | 0.00 | 71 | 1010.9 |
| 20260903031304 | 58 | 288 | 17.0 | 20.0 | 0.00 | 0.22 | 0.00 | 71 | 1010.8 |
| 20260903030804 | 58 | 294 | 16.0 | 21.0 | 0.00 | 0.22 | 0.00 | 71 | 1011.0 |
| 20260903030111 | 57 | 291 | 12.0 | 22.0 | 0.00 | 0.03 | 0.00 | 70 | 1011.0 |
| 20260903024804 | 58 | 285 | 18.0 | 21.0 | 0.00 | 0.22 | 0.00 | 71 | 1011.0 |
| 20260903024608 | 57 | 281 | 15.0 | 21.0 | 0.00 | 0.03 | 0.00 | 71 | 1010.9 |
| 20260903023304 | 58 | 297 | 13.0 | 20.0 | 0.00 | 0.22 | 0.00 | 70 | 1011.1 |
| 20260903023108 | 57 | 282 | 14.0 | 21.0 | 0.00 | 0.03 | 0.00 | 69 | 1011.0 |
| 20260903021804 | 58 | 304 | 14.0 | 21.0 | 0.00 | 0.22 | 0.00 | 70 | 1011.1 |
| 20260903021607 | 57 | 285 | 14.0 | 22.0 | 0.00 | 0.03 | 0.00 | 69 | 1011.1 |
| 20260903021304 | 58 | 321 | 13.0 | 20.0 | 0.00 | 0.22 | 0.00 | 69 | 1011.2 |
| 20260903020804 | 58 | 308 | 16.0 | 22.0 | 0.00 | 0.22 | 0.00 | 69 | 1011.2 |
| 20260903020304 | 58 | 316 | 16.0 | 25.0 | 0.00 | 0.22 | 0.00 | 70 | 1011.2 |
| 20260903020105 | 58 | 314 | 17.0 | 23.0 | 0.00 | 0.03 | 0.00 | 70 | 1011.1 |
| 20260903014804 | 58 | 299 | 13.0 | 24.0 | 0.00 | 0.22 | 0.00 | 70 | 1011.2 |
| 20260903014605 | 58 | 286 | 13.0 | 24.0 | 0.00 | 0.03 | 0.00 | 69 | 1011.3 |
| 20260903014304 | 58 | 306 | 13.0 | 22.0 | 0.00 | 0.22 | 0.00 | 69 | 1011.3 |
| 20260903013804 | 58 | 312 | 17.0 | 23.0 | 0.00 | 0.22 | 0.00 | 70 | 1011.4 |
| 20260903013304 | 58 | 303 | 14.0 | 25.0 | 0.00 | 0.22 | 0.00 | 70 | 1011.3 |
| 20260903013106 | 58 | 316 | 15.0 | 25.0 | 0.00 | 0.03 | 0.00 | 69 | 1011.4 |
| 20260903011804 | 58 | 293 | 19.0 | 26.0 | 0.00 | 0.22 | 0.00 | 70 | 1011.4 |
| 20260903011606 | 58 | 310 | 18.0 | 24.0 | 0.00 | 0.03 | 0.00 | 70 | 1011.4 |
| 20260903010804 | 58 | 302 | 17.0 | 21.0 | 0.00 | 0.22 | 0.00 | 69 | 1011.5 |
| 20260903010303 | 59 | 315 | 16.0 | 22.0 | 0.00 | 0.22 | 0.00 | 70 | 1011.5 |
| 20260903010108 | 58 | 337 | 16.0 | 22.0 | 0.00 | 0.03 | 0.00 | 69 | 1011.4 |
| 20260903004804 | 58 | 301 | 17.0 | 22.0 | 0.00 | 0.22 | 0.00 | 70 | 1011.7 |
| 20260903004625 | 58 | 310 | 15.0 | 23.0 | 0.00 | 0.03 | 0.00 | 70 | 1011.6 |
| 20260903004304 | 58 | 295 | 16.0 | 23.0 | 0.00 | 0.22 | 0.00 | 70 | 1011.6 |
| 20260903003804 | 58 | 305 | 15.0 | 23.0 | 0.00 | 0.22 | 0.00 | 69 | 1011.6 |
| 20260903003304 | 59 | 300 | 18.0 | 28.0 | 0.00 | 0.22 | 0.00 | 70 | 1011.6 |
| 20260903003102 | 58 | 300 | 20.0 | 28.0 | 0.00 | 0.03 | 0.00 | 70 | 1011.6 |
| 20260903001607 | 58 | 296 | 15.0 | 27.0 | 0.00 | 0.03 | 0.00 | 71 | 1011.6 |
| 20260903001304 | 59 | 304 | 16.0 | 25.0 | 0.00 | 0.22 | 0.00 | 70 | 1011.7 |
| 20260903000304 | 59 | 286 | 18.0 | 24.0 | 0.00 | 0.22 | 0.00 | 70 | 1011.5 |
| 20260903000107 | 58 | 300 | 16.0 | 24.0 | 0.00 | 0.03 | 0.00 | 70 | 1011.6 |
| 20260902234804 | 59 | 297 | 19.0 | 25.0 | 0.00 | 0.22 | 0.00 | 70 | 1011.6 |
| 20260902234606 | 59 | 316 | 16.0 | 25.0 | 0.00 | 0.03 | 0.00 | 70 | 1011.6 |
| 20260902234304 | 59 | 308 | 18.0 | 24.0 | 0.00 | 0.22 | 0.00 | 71 | 1011.6 |
| 20260902233804 | 59 | 310 | 17.0 | 25.0 | 0.00 | 0.22 | 0.00 | 70 | 1011.7 |
| 20260902233305 | 59 | 314 | 17.0 | 25.0 | 0.00 | 0.22 | 0.00 | 70 | 1011.7 |
| 20260902233105 | 59 | 288 | 16.0 | 28.0 | 0.00 | 0.03 | 0.00 | 70 | 1011.7 |
| 20260902231616 | 59 | 282 | 18.0 | 26.0 | 0.00 | 0.03 | 0.00 | 71 | 1011.6 |
| 20260902231304 | 59 | 307 | 17.0 | 24.0 | 0.00 | 0.22 | 0.00 | 71 | 1011.8 |
| 20260902230804 | 59 | 301 | 18.0 | 24.0 | 0.00 | 0.22 | 0.00 | 71 | 1011.7 |
| 20260902230107 | 59 | 297 | 16.0 | 25.0 | 0.00 | 0.03 | 0.00 | 71 | 1011.7 |
| 20260902224804 | 59 | 309 | 20.0 | 25.0 | 0.00 | 0.22 | 0.00 | 69 | 1011.8 |
| 20260902224604 | 59 | 296 | 18.0 | 27.0 | 0.00 | 0.03 | 0.00 | 70 | 1011.8 |
| 20260902224304 | 59 | 317 | 17.0 | 26.0 | 0.00 | 0.22 | 0.00 | 71 | 1011.8 |
| 20260902223304 | 59 | 297 | 20.0 | 26.0 | 0.03 | 0.22 | 0.00 | 71 | 1011.8 |
| 20260902223122 | 59 | 291 | 18.0 | 26.0 | 0.00 | 0.03 | 0.00 | 69 | 1011.8 |
| 20260902221804 | 59 | 296 | 18.0 | 25.0 | 0.03 | 0.22 | 0.00 | 72 | 1011.9 |
| 20260902221605 | 59 | 305 | 19.0 | 27.0 | 0.00 | 0.03 | 0.00 | 72 | 1011.9 |
| 20260902221304 | 59 | 289 | 21.0 | 26.0 | 0.03 | 0.22 | 0.00 | 72 | 1011.8 |
| 20260902220827 | 59 | 296 | 20.0 | 26.0 | 0.03 | 0.22 | 0.00 | 71 | 1011.9 |
| 20260902220109 | 59 | 295 | 19.0 | 28.0 | 0.00 | 0.03 | 0.00 | 71 | 1011.9 |
| 20260902214608 | 59 | 295 | 21.0 | 27.0 | 0.00 | 0.03 | 0.03 | 71 | 1011.8 |
| 20260902214303 | 59 | 305 | 18.0 | 25.0 | 0.00 | 0.22 | 0.03 | 72 | 1011.8 |
| 20260902213804 | 59 | 305 | 18.0 | 26.0 | 0.00 | 0.22 | 0.03 | 72 | 1011.9 |
| 20260902213304 | 59 | 307 | 21.0 | 29.0 | 0.00 | 0.19 | 0.03 | 72 | 1011.8 |
| 20260902213107 | 59 | 293 | 16.0 | 25.0 | 0.00 | 0.03 | 0.03 | 72 | 1011.7 |
| 20260902211804 | 59 | 299 | 21.0 | 28.0 | 0.00 | 0.19 | 0.03 | 72 | 1011.6 |
| 20260902211604 | 59 | 295 | 20.0 | 27.0 | 0.00 | 0.03 | 0.03 | 72 | 1011.6 |
| 20260902211304 | 60 | 300 | 20.0 | 26.0 | 0.00 | 0.19 | 0.03 | 73 | 1011.7 |
| 20260902210804 | 59 | 291 | 23.0 | 26.0 | 0.00 | 0.19 | 0.03 | 72 | 1011.7 |
| 20260902210109 | 59 | 283 | 18.0 | 29.0 | 0.00 | 0.03 | 0.03 | 72 | 1011.7 |
| 20260902204804 | 60 | 292 | 22.0 | 29.0 | 0.00 | 0.19 | 0.03 | 73 | 1011.6 |
| 20260902204640 | 59 | 291 | 21.0 | 30.0 | 0.00 | 0.03 | 0.03 | 73 | 1011.6 |
| 20260902204304 | 60 | 289 | 22.0 | 30.0 | 0.00 | 0.19 | 0.03 | 73 | 1011.6 |
| 20260902203304 | 60 | 288 | 23.0 | 28.0 | 0.00 | 0.28 | 0.03 | 74 | 1011.7 |
| 20260902203103 | 59 | 293 | 22.0 | 28.0 | 0.00 | 0.03 | 0.03 | 73 | 1011.6 |
| 20260902201804 | 60 | 284 | 19.0 | 25.0 | 0.00 | 0.25 | 0.03 | 74 | 1011.7 |
| 20260902201606 | 59 | 278 | 21.0 | 30.0 | 0.00 | 0.03 | 0.03 | 73 | 1011.7 |
| 20260902201304 | 60 | 287 | 23.0 | 30.0 | 0.00 | 0.25 | 0.03 | 74 | 1011.7 |
| 20260902200804 | 60 | 289 | 18.0 | 25.0 | 0.00 | 0.25 | 0.03 | 74 | 1011.7 |
| 20260902200304 | 60 | 285 | 22.0 | 28.0 | 0.00 | 0.35 | 0.03 | 74 | 1011.7 |
| 20260902200111 | 60 | 283 | 20.0 | 28.0 | 0.00 | 0.03 | 0.03 | 74 | 1011.7 |
| 20260902194608 | 60 | 286 | 22.0 | 29.0 | 0.00 | 0.03 | 0.03 | 72 | 1011.8 |
| 20260902194304 | 60 | 282 | 20.0 | 29.0 | 0.00 | 0.35 | 0.03 | 73 | 1011.8 |
| 20260902193804 | 60 | 286 | 21.0 | 29.0 | 0.00 | 0.35 | 0.03 | 73 | 1011.8 |
| 20260902193304 | 60 | 277 | 20.0 | 29.0 | 0.00 | 0.35 | 0.03 | 73 | 1011.8 |
| 20260902193113 | 60 | 291 | 18.0 | 26.0 | 0.00 | 0.03 | 0.03 | 73 | 1011.7 |
| 20260902191611 | 60 | 283 | 21.0 | 27.0 | 0.00 | 0.03 | 0.03 | 71 | 1011.7 |
| 20260902191304 | 61 | 291 | 22.0 | 26.0 | 0.00 | 0.35 | 0.03 | 72 | 1011.7 |
| 20260902190804 | 61 | 287 | 22.0 | 26.0 | 0.00 | 0.35 | 0.03 | 72 | 1011.7 |
| 20260902190304 | 61 | 296 | 22.0 | 29.0 | 0.00 | 0.35 | 0.03 | 72 | 1011.7 |
| 20260902190109 | 61 | 310 | 17.0 | 29.0 | 0.00 | 0.03 | 0.03 | 72 | 1011.5 |
| 20260902184803 | 61 | 290 | 18.0 | 26.0 | 0.00 | 0.35 | 0.03 | 72 | 1011.6 |
| 20260902184605 | 61 | 292 | 21.0 | 28.0 | 0.00 | 0.03 | 0.03 | 71 | 1011.5 |
| 20260902183804 | 61 | 288 | 18.0 | 28.0 | 0.00 | 0.35 | 0.03 | 72 | 1011.6 |
| 20260902183304 | 61 | 293 | 20.0 | 26.0 | 0.00 | 0.35 | 0.03 | 72 | 1011.6 |
| 20260902183113 | 61 | 274 | 18.0 | 25.0 | 0.00 | 0.03 | 0.03 | 71 | 1011.5 |
| 20260902181614 | 61 | 291 | 18.0 | 24.0 | 0.00 | 0.03 | 0.03 | 71 | 1011.3 |
| 20260902181304 | 62 | 299 | 16.0 | 24.0 | 0.00 | 0.35 | 0.03 | 71 | 1011.4 |
| 20260902180804 | 62 | 290 | 17.0 | 23.0 | 0.00 | 0.35 | 0.03 | 72 | 1011.3 |
| 20260902180304 | 62 | 292 | 18.0 | 23.0 | 0.00 | 0.35 | 0.03 | 71 | 1011.3 |
| 20260902180106 | 62 | 273 | 17.0 | 23.0 | 0.00 | 0.03 | 0.03 | 71 | 1011.4 |
| 20260902174603 | 62 | 287 | 16.0 | 22.0 | 0.00 | 0.03 | 0.03 | 72 | 1011.3 |
| 20260902174304 | 62 | 305 | 16.0 | 20.0 | 0.00 | 0.31 | 0.03 | 73 | 1011.4 |
| 20260902173804 | 62 | 303 | 16.0 | 21.0 | 0.00 | 0.31 | 0.03 | 72 | 1011.4 |
| 20260902173304 | 63 | 296 | 17.0 | 23.0 | 0.00 | 0.31 | 0.03 | 73 | 1011.4 |
| 20260902173120 | 62 | 319 | 16.0 | 22.0 | 0.00 | 0.03 | 0.03 | 72 | 1011.4 |
| 20260902171804 | 62 | 291 | 18.0 | 22.0 | 0.00 | 0.31 | 0.03 | 72 | 1011.4 |
| 20260902171609 | 62 | 289 | 13.0 | 24.0 | 0.00 | 0.03 | 0.03 | 72 | 1011.4 |
| 20260902171304 | 63 | 295 | 16.0 | 22.0 | 0.00 | 0.31 | 0.03 | 73 | 1011.4 |
| 20260902170804 | 63 | 310 | 16.0 | 22.0 | 0.00 | 0.31 | 0.03 | 72 | 1011.5 |
| 20260902170304 | 63 | 304 | 13.0 | 20.0 | 0.00 | 0.31 | 0.03 | 73 | 1011.4 |
| 20260902170110 | 62 | 292 | 12.0 | 19.0 | 0.00 | 0.03 | 0.03 | 73 | 1011.4 |
| 20260902164804 | 63 | 317 | 13.0 | 20.0 | 0.00 | 0.41 | 0.03 | 74 | 1011.4 |
| 20260902164607 | 63 | 327 | 14.0 | 19.0 | 0.00 | 0.03 | 0.03 | 73 | 1011.4 |
| 20260902164304 | 63 | 317 | 16.0 | 20.0 | 0.00 | 0.41 | 0.03 | 73 | 1011.5 |
| 20260902163805 | 63 | 310 | 12.0 | 18.0 | 0.00 | 0.41 | 0.03 | 74 | 1011.4 |
| 20260902163304 | 64 | 316 | 13.0 | 21.0 | 0.00 | 0.41 | 0.03 | 73 | 1011.5 |
| 20260902163107 | 63 | 329 | 12.0 | 21.0 | 0.00 | 0.03 | 0.03 | 73 | 1011.4 |
| 20260902161804 | 64 | 323 | 14.0 | 18.0 | 0.00 | 0.50 | 0.03 | 69 | 1011.4 |
| 20260902161610 | 63 | 334 | 14.0 | 21.0 | 0.00 | 0.03 | 0.03 | 69 | 1011.4 |
| 20260902161304 | 64 | 313 | 15.0 | 21.0 | 0.00 | 0.50 | 0.03 | 69 | 1011.5 |
| 20260902160105 | 64 | 329 | 11.0 | 17.0 | 0.00 | 0.03 | 0.03 | 68 | 1011.5 |
| 20260902154605 | 64 | 296 | 12.0 | 18.0 | 0.00 | 0.03 | 0.03 | 68 | 1011.4 |
| 20260902154304 | 65 | 312 | 12.0 | 15.0 | 0.00 | 0.50 | 0.03 | 67 | 1011.4 |
| 20260902153304 | 64 | 311 | 10.0 | 16.0 | 0.00 | 0.47 | 0.03 | 68 | 1011.4 |
| 20260902153109 | 64 | 339 | 7.0 | 16.0 | 0.00 | 0.03 | 0.03 | 67 | 1011.5 |
| 20260902151602 | 64 | 329 | 11.0 | 18.0 | 0.00 | 0.03 | 0.03 | 69 | 1011.3 |
| 20260902151304 | 64 | 319 | 8.0 | 15.0 | 0.00 | 0.44 | 0.03 | 70 | 1011.3 |
| 20260902150804 | 64 | 316 | 11.0 | 16.0 | 0.00 | 0.44 | 0.03 | 71 | 1011.4 |
| 20260902150104 | 64 | 331 | 13.0 | 18.0 | 0.00 | 0.03 | 0.03 | 73 | 1011.3 |
| 20260902144804 | 64 | 332 | 12.0 | 17.0 | 0.00 | 0.44 | 0.03 | 80 | 1011.3 |
| 20260902144601 | 63 | 327 | 12.0 | 17.0 | 0.00 | 0.03 | 0.03 | 80 | 1011.3 |
| 20260902143304 | 64 | 300 | 13.0 | 16.0 | 0.00 | 0.44 | 0.03 | 81 | 1011.2 |
| 20260902143104 | 63 | 305 | 9.0 | 17.0 | 0.00 | 0.03 | 0.03 | 81 | 1011.1 |
| 20260902141602 | 64 | 295 | 14.0 | 18.0 | 0.00 | 0.03 | 0.03 | 83 | 1010.9 |
| 20260902140304 | 63 | 274 | 13.0 | 18.0 | 0.00 | 0.41 | 0.03 | 84 | 1010.9 |
| 20260902140106 | 63 | 290 | 14.0 | 18.0 | 0.00 | 0.03 | 0.03 | 84 | 1010.9 |
| 20260902134804 | 63 | 277 | 13.0 | 18.0 | 0.00 | 0.41 | 0.03 | 84 | 1011.0 |
| 20260902134612 | 62 | 270 | 14.0 | 18.0 | 0.00 | 0.03 | 0.03 | 84 | 1011.0 |
| 20260902134304 | 63 | 281 | 13.0 | 17.0 | 0.01 | 0.41 | 0.03 | 84 | 1011.0 |
| 20260902133804 | 63 | 275 | 14.0 | 18.0 | 0.01 | 0.41 | 0.03 | 84 | 1010.9 |
| 20260902133303 | 63 | 273 | 13.0 | 17.0 | 0.01 | 0.41 | 0.03 | 84 | 1011.0 |
| 20260902133111 | 62 | 266 | 13.0 | 17.0 | 0.00 | 0.03 | 0.03 | 84 | 1010.9 |
| 20260902131804 | 62 | 275 | 13.0 | 18.0 | 0.01 | 0.41 | 0.03 | 84 | 1011.0 |
| 20260902131604 | 62 | 268 | 14.0 | 18.0 | 0.00 | 0.03 | 0.03 | 84 | 1011.1 |
| 20260902131304 | 62 | 265 | 14.0 | 17.0 | 0.01 | 0.41 | 0.03 | 84 | 1011.0 |
| 20260902130804 | 62 | 258 | 13.0 | 17.0 | 0.01 | 0.41 | 0.03 | 84 | 1011.0 |
| 20260902130303 | 62 | 263 | 15.0 | 20.0 | 0.01 | 0.41 | 0.03 | 85 | 1011.2 |
| 20260902130115 | 62 | 262 | 13.0 | 20.0 | 0.00 | 0.03 | 0.03 | 84 | 1011.1 |
| 20260902124804 | 62 | 261 | 16.0 | 20.0 | 0.01 | 0.41 | 0.03 | 85 | 1011.3 |
| 20260902124604 | 61 | 250 | 16.0 | 19.0 | 0.00 | 0.03 | 0.03 | 84 | 1011.2 |
| 20260902124304 | 62 | 263 | 13.0 | 18.0 | 0.00 | 0.40 | 0.02 | 85 | 1011.3 |
| 20260902123804 | 62 | 272 | 6.0 | 9.0 | 0.01 | 0.40 | 0.02 | 85 | 1011.3 |
| 20260902123112 | 61 | 279 | 2.0 | 5.0 | 0.00 | 0.02 | 0.02 | 84 | 1011.1 |